sat.trackr.live / text

‹ back to catalog

STARLINK-5651

NORAD 55357 · 2023-013AC

PAYLOAD ACTIVE UNKNOWN

§ Identity

Operator
Country
US
Launch date
2023-01-26
Launch site
AFETR
Launch vehicle
Mass (kg)
RCS (m²)

Purposes: comms

External: N2YO · Heavens-Above · Gunter

§ Orbital elements

Epoch: 2026-05-24T15:53:45.432096Z

Period
94.27 min
Inclination
43.0024°
Eccentricity
0.0001480
Mean motion
15.27578059 rev/d
Perigee alt
482.0 km
Apogee alt
484.1 km
Semi-major
6,861.2 km
B*
4.1270e-6
RAAN
234.2409°
Arg perigee
270.0288°
Mean anomaly
90.0394°
Rev number
18,329

§ Raw data

STARLINK-56511 55357U 23013AC  26144.66233139 -.00000149  00000+0  41270-5 0  99972 55357  43.0024 234.2409 0001480 270.0288  90.0394 15.27578059183291

JSON: /api/v1/satellites/55357 · /tle

For live sub-satellite position, see the globe view (requires WebGL).

§ Visibility from observer

Set your observer location to see the next 7 days of passes ≥ 10°. The values pass through the URL so the page stays shareable.

No JS? Fill the form by hand. The geolocation button needs JavaScript.